Погода в Пясечно

Польша     52°04′36″N   21°01′11″E
темп.,
°C
ветер,
м/с
пор.,
м/с
влажн.,
%
обл.,
%
осадки,
мм/ч
давл.,
гПа
погр.,
м
25 февраля, чт
чт2501:00+7з348348 0.0 103137
04:00+6зюз23855 0.0 103024
07:00+6зюз338711 0.0 103029
10:00+11юз237517 0.0 1030190
13:00+14ююз34678 0.0 1028370
16:00+13ююз36700 0.0 1026182
19:00+9юз34750 0.0 102661
22:00+8зюз49800 0.0 1026147
26 февраля, пт
пт2601:00+8з510850 0.0 1026197
04:00+7з510920 0.0 1025215
07:00+6з410950 0.0 1026230
10:00+9зсз698498 0.0 1026514
13:00+11з7106597 0.0 1025917
16:00+9зсз5961100 0.0 1024926
19:00+6з61178100 0.1 1025613
22:00+5зсз6148282 0.0 1025600
27 февраля, сб
сб2701:00+3зсз6138755 0.0 1026570
04:00+3зсз6138754 0.0 1025581
07:00+3зсз7138677 0.0 1025767
10:00+5сз7107998 0.0 1026902
13:00+5сз7107399 0.1 1027978
16:00+6сз61066100 0.0 10281188
19:00+3сз5127959 0.0 1030392
22:00+1сз511870 0.0 1031358
28 февраля, вс
вс2801:000сз48940 0.0 1032268
04:00−1сз489516 0.0 1032256
07:00−1сз479339 0.0 1032267
10:00+2сз4675100 0.0 1032432
13:00+5сз4563100 0.0 1032930
16:00+4сз3669100 0.0 1032342
19:00+2сз3486100 0.0 103491
22:00+1ссз359399 0.0 1035100
1 марта, пн
пн101:000с239792 0.0 103656
04:00−1с239614 0.0 103632
07:00+1сз229539 0.0 1037103
10:00+4ссз348297 0.0 1039396
13:00+6с236583 0.0 1038904
16:00+6сз236880 0.0 1038482
19:00+3зсз238156 0.0 103936
22:00+2зсз228522 0.0 104023